Location: Fuglau
(48.6333°N, 15.5500°E)
Time: 08:23:50
(UTC+00:00)

Okean 1 - Pass Details

Date: 27 February 2020
Orbit: 538 x 556 km, 82.5° (Epoch: 09 April)

Event Time Altitude Azimuth Distance (km) Brightness Sun altitude
Rises 17:05:08 0° 0° (N) 2,731 6.8 -5.4°
Reaches altitude 10° 17:07:37 10° 14° (NNE) 1,829 5.8 -5.8°
Maximum altitude 17:10:58 25° 70° (ENE) 1,134 4.4 -6.3°
Drops below altitude 10° 17:14:16 10° 127° (SE) 1,807 5.5 -6.9°
Sets 17:16:43 0° 141° (SE) 2,691 6.5 -7.3°
